SL-8 R/B

Satellite information

Favourite Embed

Satellite Type and Status

ROCKET BODYIN ORBIT

Key statistics

Satellite SL-8 R/B at a glance.

Uptime

12121

Days in orbit

Revolutions

≈ 14.3

Per day

Orbit

LEO

Low Earth Orbit

Inclination

74.0

Latest

Satellite identification and parameters

Extended collection of information and parameters for SL-8 R/B.

Object identification

Identified? True

Debris? False

Object name: SL-8 R/B

International designator: 1992-053B

Object number (NORAD): 22081

Object ID (CCSDS): 22081

Country: COMMONWEALTH OF INDEPENDENT STATES (CIS)

Current information (Y/N): Y

RCS size: LARGE

Orbital parameters

Period: 100.368 minutes

Inclination: 74.0413 deg

SMA: 7154.156 km

Apoapsis: 801.885 km

Periapsis: 750.156 km

RAAN: 271.1663 deg

Eccentricy: 0.00361534

Argument of periapsis: 216.0021 deg

Mean anomaly: 143.8696 deg

Mean motion: 14.3471349 rev/day

Mean motion (dot): 0.00000331 rev/day2

B* drag term: 0.00012532039 1/REarth

Two-line elements (TLE)

Creation date: Oct. 18, 2025, 2:17 a.m.

Reference frame: TEME

Reference center: EARTH

Epoch: Oct. 17, 2025, 11:19 p.m. UTC

TLE line 0: 0 SL-8 R/B

TLE line 1: 1 22081U 92053B 25290.97156233 .00000331 00000-0 12532-3 0 9999

TLE line 2: 2 22081 74.0413 271.1663 0036153 216.0021 143.8696 14.34713490734726

Live tracking on map

Real-time ground track for satellite SL-8 R/B.

In-orbit conjunctions

A list of the most updated potential collisions computed for object SL-8 R/B.

Target Orbit TCA Probability of collision Miss distance Type
NOAA 16 DEB SSO 2025-04-30 18:05:43 0.0001095252 820.0 (m) DEBRIS
METEOR 2-8 DEB LEO 2025-02-01 15:47:15 0.0001972079 181.0 (m) DEBRIS
DELTA 1 DEB SSO 2025-01-08 01:10:21 0.0001034328 907.0 (m) DEBRIS
CZ-6A DEB LEO 2024-12-15 23:52:27 0.0002594551 919.0 (m) DEBRIS
FENGYUN 1C DEB SSO 2024-10-10 09:25:23 0.0001117558 747.0 (m) DEBRIS

Associated space launch

Military communications satellite

SL-8 R/B was lifted into orbit during the mission ‘Kosmos-3M | Strela-2M 50’, on board a Kosmos-3M space rocket.

The launch took place on Aug. 12, 1992, 5:44 a.m. from 132/1 (132L).

For more information about the launch, click the button.

Launch to space Kosmos-3M | Strela-2M 50
Kosmos-3M | Strela-2M 50

Agency: N/A

Status: Launch Successful

Launch date: Aug. 12, 1992, 5:44 a.m. UTC

Rocket: Kosmos-3M

Launch pad: 132/1 (132L)

Location: Plesetsk Cosmodrome, Russian Federation

...

Latest news about this satellite

There are no fresh news available about this satellite. Check back as we update our databases every day.


Newsletter sign-up

Weekly statistics, charts and insights to help you stay on top of the space industry.